This demonstration page uses our WeatherBlox Daily Observations layout. Learn more.

Left ArrowRight Arrow

Hourly Observations for March 5, 2020

Temp ( °F °C ) Dew Point ( °F °C ) Humidity (%) Winds ( mph kmh ) Pressure ( in mb ) Visibility ( mi km ) Precip ( " mm )
12:56 am 00:56 Clear 46 7.8 32 0 58 58 NNW 23 37 29.98 1015 10 16 0.00 0.00
1:56 am 01:56 Clear 43 6.1 33 0.6 68 68 NNW 20 31 30.06 1018 10 16 0.00 0.00
2:56 am 02:56 Clear 40 4.4 32 0 73 73 NNW 20 31 30.09 1019 10 16 0.00 0.00
3:56 am 03:56 Clear 39 3.9 30 -1.1 70 70 NNW 18 30 30.12 1020 10 16 0.00 0.00
4:56 am 04:56 Clear 36 2.2 28 -2.2 73 73 WNW 12 19 30.17 1022 10 16 0.00 0.00
5:56 am 05:56 Clear 35 1.7 26 -3.3 70 70 NW 12 19 30.21 1023 10 16 0.00 0.00
6:56 am 06:56 Clear 33 0.6 25 -3.9 72 72 WNW 12 19 30.26 1025 10 16 0.00 0.00
7:56 am 07:56 Sunny 36 2.2 26 -3.3 67 67 NW 14 22 30.28 1025 10 16 0.00 0.00
8:49 am 08:49 Mostly Cloudy 39 4 27 -3 61 61 NW 16 26 30.35 1028 10 16 0.00 0.00
8:56 am 08:56 Partly Cloudy 41 5 25 -3.9 53 53 NW 21 33 30.32 1027 10 16 0.00 0.00
9:56 am 09:56 Sunny 45 7.2 21 -6.1 39 39 NW 22 35 30.34 1027 10 16 0.00 0.00
10:56 am 10:56 Sunny 48 8.9 16 -8.9 28 28 NW 30 48 30.34 1028 10 16 0.00 0.00
11:56 am 11:56 Sunny 50 10 13 -10.6 22 22 NW 26 43 30.36 1028 10 16 0.00 0.00
12:56 pm 12:56 Sunny 51 10.6 12 -11.1 21 21 NW 26 43 30.35 1028 10 16 0.00 0.00
1:56 pm 13:56 Sunny 52 11.1 12 -11.1 20 20 NW 23 37 30.35 1028 10 16 0.00 0.00
2:56 pm 14:56 Sunny 52 11.1 10 -12.2 18 18 NW 22 35 30.36 1028 10 16 0.00 0.00
3:56 pm 15:56 Sunny 52 11.1 11 -11.7 19 19 NNW 23 37 30.37 1029 10 16 0.00 0.00
4:56 pm 16:56 Sunny 51 10.6 10 -12.2 19 19 NNW 21 33 30.39 1029 10 16 0.00 0.00
5:56 pm 17:56 Sunny 49 9.4 10 -12.2 21 21 NNW 18 30 30.42 1030 10 16 0.00 0.00
6:56 pm 18:56 Clear 42 5.6 12 -11.1 29 29 NNW 7 11 30.44 1031 10 16 0.00 0.00
7:56 pm 19:56 Clear 36 2.2 12 -11.1 37 37 NW 6 9 30.47 1032 10 16 0.00 0.00
8:56 pm 20:56 Clear 35 1.7 13 -10.6 40 40 NNW 5 7 30.47 1032 10 16 0.00 0.00
9:56 pm 21:56 Clear 31 -0.6 16 -8.9 54 54 N 6 9 30.51 1033 10 16 0.00 0.00
10:56 pm 22:56 Clear 32 0 16 -8.9 52 52 N 7 11 30.51 1033 10 16 0.00 0.00
11:56 pm 23:56 Clear 29 -1.7 16 -8.9 58 58 NW 6 9 30.51 1033 10 16 0.00 0.00

Powered by AerisWeather